When you browse on this site, cookies collect data to enhance your experience and personalize the content and advertising you see.
Visit our Privacy Policy to learn more. By continuing to use the site, you agree to this use of cookies and data.
  • în România
  • Lista ţărilor
  • Pe 7 zile
  • Temperatura apei
  • Hartă satelitară
  • Meteo pe hartă
  • Widget-uri
  • user-avatar
    Intrare

    Meteo pe oră la Artashat

    Astăzi, 24 Iunie, Luni

    Timp Temperatura Precipitaţii Vânt Presiune Umiditate
    00:00 +17°C° 0 mm 0 m/s 603 mmHg 60%
    01:00 +17°C° 0 mm 0 m/s 603 mmHg 63%
    02:00 +16°C° 0 mm 0 m/s 603 mmHg 66%
    03:00 +18°C° 0 mm 1 m/s 603 mmHg 67%
    04:00 +17°C° 0 mm 0 m/s 603 mmHg 67%
    05:00 +17°C° 0 mm 0 m/s 604 mmHg 66%
    06:00 +18°C° 0 mm 0 m/s 604 mmHg 65%
    07:00 +21°C° 0 mm 1 m/s 605 mmHg 60%
    08:00 +22°C° 0 mm 1 m/s 605 mmHg 55%
    09:00 +24°C° 0 mm 2 m/s 605 mmHg 50%
    10:00 +25°C° 0 mm 2 m/s 605 mmHg 47%
    11:00 +26°C° 0 mm 2 m/s 606 mmHg 43%
    12:00 +27°C° 0 mm 3 m/s 606 mmHg 40%
    13:00 +27°C° 0 mm 3 m/s 606 mmHg 38%
    14:00 +28°C° 0 mm 3 m/s 606 mmHg 37%
    15:00 +28°C° 0 mm 3 m/s 606 mmHg 35%
    16:00 +28°C° 0 mm 2 m/s 606 mmHg 36%
    17:00 +28°C° 0 mm 2 m/s 606 mmHg 36%
    18:00 +28°C° 0 mm 2 m/s 605 mmHg 36%
    19:00 +26°C° 0 mm 2 m/s 605 mmHg 42%
    20:00 +24°C° 0 mm 2 m/s 605 mmHg 49%
    21:00 +21°C° 0 mm 2 m/s 604 mmHg 55%
    22:00 +20°C° 0 mm 2 m/s 604 mmHg 57%
    23:00 +19°C° 0 mm 2 m/s 604 mmHg 59%

    Mâine, 25 Iunie, Marţi

    Timp Temperatura Precipitaţii Vânt Presiune Umiditate
    00:00 +20°C° 0 mm 1 m/s 604 mmHg 61%
    01:00 +19°C° 0 mm 1 m/s 604 mmHg 63%
    02:00 +18°C° 0 mm 1 m/s 603 mmHg 64%
    03:00 +18°C° 0 mm 1 m/s 603 mmHg 66%
    04:00 +19°C° 0 mm 1 m/s 604 mmHg 64%
    05:00 +19°C° 0 mm 1 m/s 604 mmHg 63%
    06:00 +20°C° 0 mm 1 m/s 605 mmHg 61%
    07:00 +21°C° 0 mm 1 m/s 605 mmHg 57%
    08:00 +23°C° 0 mm 1 m/s 605 mmHg 52%
    09:00 +24°C° 0 mm 1 m/s 606 mmHg 47%
    10:00 +25°C° 0 mm 2 m/s 606 mmHg 45%
    11:00 +26°C° 0 mm 2 m/s 606 mmHg 42%
    12:00 +27°C° 0 mm 3 m/s 606 mmHg 40%
    13:00 +28°C° 0 mm 3 m/s 606 mmHg 37%
    14:00 +28°C° 0 mm 3 m/s 607 mmHg 35%
    15:00 +29°C° 0 mm 3 m/s 607 mmHg 32%
    16:00 +28°C° 0 mm 2 m/s 606 mmHg 34%
    17:00 +28°C° 0 mm 2 m/s 606 mmHg 35%
    18:00 +28°C° 0 mm 2 m/s 606 mmHg 36%
    19:00 +26°C° 0 mm 1 m/s 606 mmHg 42%
    20:00 +24°C° 0 mm 1 m/s 606 mmHg 47%
    21:00 +22°C° 0 mm 1 m/s 605 mmHg 53%
    22:00 +21°C° 0 mm 1 m/s 605 mmHg 54%
    23:00 +21°C° 0 mm 1 m/s 605 mmHg 56%

    Poimâine, 26 Iunie, Miercuri

    Timp Temperatura Precipitaţii Vânt Presiune Umiditate
    00:00 +20°C° 0 mm 1 m/s 605 mmHg 58%
    01:00 +19°C° 0 mm 1 m/s 604 mmHg 59%
    02:00 +17°C° 0 mm 0 m/s 604 mmHg 61%
    03:00 +16°C° 0 mm 0 m/s 604 mmHg 63%
    04:00 +17°C° 0 mm 0 m/s 605 mmHg 62%
    05:00 +18°C° 0 mm 0 m/s 605 mmHg 61%
    06:00 +19°C° 0 mm 0 m/s 606 mmHg 60%
    07:00 +22°C° 0 mm 1 m/s 606 mmHg 54%
    08:00 +23°C° 0 mm 1 m/s 606 mmHg 48%
    09:00 +24°C° 0 mm 2 m/s 607 mmHg 43%
    10:00 +25°C° 0 mm 2 m/s 607 mmHg 41%
    11:00 +26°C° 0 mm 2 m/s 607 mmHg 38%
    12:00 +27°C° 0 mm 3 m/s 607 mmHg 36%
    13:00 +28°C° 0 mm 3 m/s 607 mmHg 34%
    14:00 +28°C° 0 mm 3 m/s 607 mmHg 33%
    15:00 +29°C° 0 mm 3 m/s 607 mmHg 31%
    16:00 +28°C° 0.2 mm 3 m/s 606 mmHg 35%
    17:00 +27°C° 0.2 mm 2 m/s 605 mmHg 38%
    18:00 +25°C° 0.2 mm 1 m/s 605 mmHg 42%
    19:00 +24°C° 0.1 mm 1 m/s 605 mmHg 47%
    20:00 +22°C° 0.1 mm 1 m/s 604 mmHg 51%
    21:00 +21°C° 0.1 mm 1 m/s 604 mmHg 56%
    22:00 +20°C° 0 mm 1 m/s 604 mmHg 57%
    23:00 +20°C° 0 mm 1 m/s 603 mmHg 57%

    27 Iunie, Joi

    Timp Temperatura Precipitaţii Vânt Presiune Umiditate
    00:00 +20°C° 0 mm 1 m/s 603 mmHg 58%
    01:00 +19°C° 0 mm 1 m/s 603 mmHg 60%
    02:00 +18°C° 0 mm 1 m/s 602 mmHg 62%
    03:00 +18°C° 0 mm 1 m/s 602 mmHg 64%
    04:00 +18°C° 0 mm 1 m/s 602 mmHg 63%
    05:00 +19°C° 0 mm 1 m/s 603 mmHg 62%
    06:00 +20°C° 0 mm 1 m/s 603 mmHg 61%
    07:00 +21°C° 0 mm 1 m/s 603 mmHg 57%
    08:00 +22°C° 0 mm 1 m/s 603 mmHg 53%
    09:00 +23°C° 0 mm 2 m/s 603 mmHg 49%
    10:00 +24°C° 0 mm 2 m/s 603 mmHg 46%
    11:00 +25°C° 0 mm 2 m/s 603 mmHg 43%
    12:00 +26°C° 0 mm 2 m/s 603 mmHg 39%
    13:00 +27°C° 0.1 mm 2 m/s 603 mmHg 37%
    14:00 +28°C° 0.1 mm 2 m/s 603 mmHg 35%
    15:00 +28°C° 0.1 mm 2 m/s 603 mmHg 32%
    16:00 +26°C° 0.5 mm 3 m/s 602 mmHg 39%
    17:00 +25°C° 0.5 mm 3 m/s 602 mmHg 47%
    18:00 +22°C° 0.5 mm 4 m/s 601 mmHg 54%
    19:00 +20°C° 1.3 mm 3 m/s 601 mmHg 61%
    20:00 +18°C° 1.3 mm 2 m/s 600 mmHg 67%
    21:00 +16°C° 1.3 mm 1 m/s 600 mmHg 74%
    22:00 +16°C° 0.1 mm 1 m/s 600 mmHg 74%
    23:00 +16°C° 0.1 mm 1 m/s 600 mmHg 75%

    28 Iunie, Vineri

    Timp Temperatura Precipitaţii Vânt Presiune Umiditate
    00:00 +15°C° 0.1 mm 0 m/s 600 mmHg 75%
    01:00 +15°C° 0.2 mm 0 m/s 600 mmHg 77%
    02:00 +14°C° 0.2 mm 0 m/s 599 mmHg 78%
    03:00 +13°C° 0.2 mm 0 m/s 599 mmHg 80%
    04:00 +15°C° 0.2 mm 1 m/s 599 mmHg 78%
    05:00 +15°C° 0.2 mm 1 m/s 599 mmHg 76%
    06:00 +15°C° 0.2 mm 1 m/s 599 mmHg 74%
    07:00 +16°C° 0.3 mm 1 m/s 599 mmHg 70%
    08:00 +18°C° 0.3 mm 1 m/s 599 mmHg 66%
    09:00 +18°C° 0.3 mm 2 m/s 600 mmHg 62%
    10:00 +20°C° 0.4 mm 2 m/s 600 mmHg 58%
    11:00 +21°C° 0.4 mm 2 m/s 600 mmHg 54%
    12:00 +23°C° 0.4 mm 2 m/s 600 mmHg 50%
    13:00 +23°C° 0.5 mm 2 m/s 600 mmHg 49%
    14:00 +24°C° 0.5 mm 3 m/s 600 mmHg 48%
    15:00 +24°C° 0.5 mm 3 m/s 599 mmHg 46%
    16:00 +24°C° 0.4 mm 2 m/s 599 mmHg 47%
    17:00 +23°C° 0.4 mm 2 m/s 600 mmHg 48%
    18:00 +23°C° 0.4 mm 1 m/s 600 mmHg 49%
    19:00 +22°C° 0.2 mm 1 m/s 600 mmHg 52%
    20:00 +21°C° 0.2 mm 1 m/s 600 mmHg 55%
    21:00 +19°C° 0.2 mm 1 m/s 600 mmHg 59%
    22:00 +19°C° 0.2 mm 1 m/s 599 mmHg 62%
    23:00 +18°C° 0.2 mm 1 m/s 599 mmHg 65%

    29 Iunie, Sâmbătă

    Timp Temperatura Precipitaţii Vânt Presiune Umiditate
    00:00 +18°C° 0.2 mm 1 m/s 599 mmHg 69%
    01:00 +16°C° 0 mm 1 m/s 598 mmHg 70%
    02:00 +16°C° 0 mm 1 m/s 598 mmHg 71%
    03:00 +16°C° 0 mm 1 m/s 598 mmHg 72%
    04:00 +16°C° 0 mm 1 m/s 598 mmHg 71%
    05:00 +16°C° 0 mm 1 m/s 598 mmHg 70%
    06:00 +16°C° 0 mm 1 m/s 598 mmHg 69%
    07:00 +18°C° 0.2 mm 1 m/s 598 mmHg 65%
    08:00 +19°C° 0.2 mm 2 m/s 599 mmHg 61%
    09:00 +20°C° 0.2 mm 2 m/s 599 mmHg 57%
    10:00 +21°C° 0.6 mm 2 m/s 599 mmHg 53%
    11:00 +23°C° 0.6 mm 2 m/s 599 mmHg 49%
    12:00 +24°C° 0.6 mm 2 m/s 600 mmHg 44%
    13:00 +24°C° 0.5 mm 2 m/s 599 mmHg 45%
    14:00 +24°C° 0.5 mm 3 m/s 599 mmHg 46%
    15:00 +24°C° 0.5 mm 3 m/s 599 mmHg 47%
    16:00 +21°C° 2.1 mm 3 m/s 599 mmHg 53%
    17:00 +20°C° 2.1 mm 2 m/s 599 mmHg 58%
    18:00 +19°C° 2.1 mm 2 m/s 598 mmHg 64%
    19:00 +18°C° 0.2 mm 2 m/s 599 mmHg 66%
    20:00 +17°C° 0.2 mm 2 m/s 599 mmHg 69%
    21:00 +18°C° 0.2 mm 1 m/s 599 mmHg 71%
    22:00 +16°C° 0.3 mm 1 m/s 599 mmHg 73%
    23:00 +16°C° 0.3 mm 1 m/s 599 mmHg 75%
    Arată mai mult